Wetterdaten: aktuell Montag, 22.10.2018 06:55
Datum Zeit Temp. I. Temp. A. Feuchte I. Feuchte A. Luftdruck Regen Wind Richtung Richtung Taupunkt Windchill Windben
22.10.2018 06:55 11,9 C 3,2 C 56 % 93 % 1026,8 hPa 0,0 l/m 3,2 km/h W-NW 292 2,2 C 3,2 C 4,8 km/h
22.10.2018 06:50 11,9 C 3,3 C 56 % 93 % 1026,8 hPa 0,0 l/m 1,6 km/h W-NW 292 2,3 C 3,3 C 4,8 km/h
22.10.2018 06:45 11,9 C 3,3 C 56 % 93 % 1026,9 hPa 0,0 l/m 0,0 km/h W-NW 292 2,3 C 3,3 C 1,6 km/h
22.10.2018 06:40 11,9 C 3,4 C 56 % 93 % 1026,9 hPa 0,0 l/m 4,8 km/h W-NW 292 2,4 C 3,4 C 9,7 km/h
22.10.2018 06:35 11,9 C 3,3 C 56 % 93 % 1026,8 hPa 0,0 l/m 4,8 km/h W-NW 292 2,3 C 3,3 C 9,7 km/h
22.10.2018 06:30 12,0 C 3,4 C 56 % 93 % 1026,9 hPa 0,0 l/m 3,2 km/h W 270 2,4 C 3,4 C 4,8 km/h
22.10.2018 06:25 12,0 C 3,5 C 56 % 93 % 1026,7 hPa 0,0 l/m 3,2 km/h W 270 2,5 C 3,5 C 3,2 km/h
22.10.2018 06:20 12,1 C 3,4 C 56 % 93 % 1026,7 hPa 0,0 l/m 3,2 km/h W 270 2,4 C 3,4 C 4,8 km/h
22.10.2018 06:15 12,1 C 3,4 C 56 % 93 % 1026,7 hPa 0,0 l/m 3,2 km/h W 270 2,4 C 3,4 C 4,8 km/h
22.10.2018 06:10 12,1 C 3,3 C 56 % 93 % 1026,7 hPa 0,0 l/m 3,2 km/h W 270 2,3 C 3,3 C 4,8 km/h
22.10.2018 06:05 12,1 C 3,3 C 56 % 93 % 1026,8 hPa 0,0 l/m 3,2 km/h W 270 2,3 C 3,3 C 4,8 km/h
22.10.2018 06:00 12,2 C 3,4 C 56 % 92 % 1026,7 hPa 0,0 l/m 3,2 km/h W 270 2,2 C 3,4 C 4,8 km/h
22.10.2018 05:55 12,2 C 3,5 C 55 % 93 % 1026,6 hPa 0,0 l/m 3,2 km/h W 270 2,5 C 3,5 C 4,8 km/h
22.10.2018 05:50 12,2 C 3,3 C 55 % 93 % 1026,7 hPa 0,0 l/m 3,2 km/h W-NW 292 2,3 C 3,3 C 4,8 km/h
22.10.2018 05:45 12,2 C 3,1 C 55 % 92 % 1026,9 hPa 0,0 l/m 3,2 km/h W-NW 292 1,9 C 3,1 C 4,8 km/h
22.10.2018 05:40 12,3 C 3,1 C 55 % 92 % 1026,8 hPa 0,0 l/m 3,2 km/h S 180 1,9 C 3,1 C 4,8 km/h
22.10.2018 05:35 12,3 C 3,2 C 55 % 92 % 1026,7 hPa 0,0 l/m 1,6 km/h S 180 2,0 C 3,2 C 4,8 km/h
22.10.2018 05:30 12,3 C 3,2 C 55 % 92 % 1026,7 hPa 0,0 l/m 0,0 km/h N 0 2,0 C 3,2 C 0,0 km/h
22.10.2018 05:25 12,4 C 3,1 C 55 % 92 % 1026,5 hPa 0,0 l/m 0,0 km/h N 0 1,9 C 3,1 C 0,0 km/h
22.10.2018 05:20 12,4 C 3,2 C 55 % 91 % 1026,4 hPa 0,0 l/m 0,0 km/h N 0 1,9 C 3,2 C 0,0 km/h
22.10.2018 05:15 12,4 C 3,3 C 56 % 91 % 1026,5 hPa 0,0 l/m 0,0 km/h N 0 2,0 C 3,3 C 0,0 km/h
22.10.2018 05:10 12,4 C 3,6 C 56 % 91 % 1026,5 hPa 0,0 l/m 0,0 km/h N 0 2,3 C 3,6 C 0,0 km/h
22.10.2018 05:05 12,5 C 3,8 C 56 % 91 % 1026,5 hPa 0,0 l/m 0,0 km/h N 0 2,5 C 3,8 C 0,0 km/h
22.10.2018 05:00 12,5 C 4,0 C 56 % 91 % 1026,4 hPa 0,0 l/m 0,0 km/h N 0 2,7 C 4,0 C 0,0 km/h
22.10.2018 04:55 12,6 C 4,2 C 56 % 91 % 1026,3 hPa 0,0 l/m 0,0 km/h N 0 2,9 C 4,2 C 0,0 km/h
22.10.2018 04:50 12,6 C 4,3 C 56 % 91 % 1026,3 hPa 0,0 l/m 0,0 km/h N 0 3,0 C 4,3 C 0,0 km/h
22.10.2018 04:45 12,6 C 4,4 C 56 % 91 % 1026,4 hPa 0,0 l/m 0,0 km/h N 0 3,1 C 4,4 C 0,0 km/h
22.10.2018 04:40 12,6 C 4,6 C 56 % 91 % 1026,4 hPa 0,0 l/m 0,0 km/h SO 135 3,3 C 4,6 C 3,2 km/h
22.10.2018 04:35 12,6 C 4,8 C 56 % 92 % 1026,3 hPa 0,0 l/m 3,2 km/h SO 135 3,6 C 4,8 C 4,8 km/h
22.10.2018 04:30 12,6 C 4,8 C 56 % 93 % 1026,2 hPa 0,0 l/m 4,8 km/h SO 135 3,8 C 4,8 C 6,4 km/h
22.10.2018 04:25 12,6 C 4,6 C 56 % 93 % 1026,3 hPa 0,0 l/m 1,6 km/h SO 135 3,6 C 4,6 C 4,8 km/h
22.10.2018 04:20 12,7 C 4,5 C 56 % 92 % 1026,4 hPa 0,0 l/m 0,0 km/h N 0 3,3 C 4,5 C 0,0 km/h
22.10.2018 04:15 12,7 C 4,4 C 56 % 92 % 1026,3 hPa 0,0 l/m 0,0 km/h N 0 3,2 C 4,4 C 0,0 km/h
22.10.2018 04:10 12,7 C 4,4 C 56 % 92 % 1026,3 hPa 0,0 l/m 0,0 km/h N 0 3,2 C 4,4 C 0,0 km/h
22.10.2018 04:05 12,7 C 4,4 C 56 % 92 % 1026,3 hPa 0,0 l/m 0,0 km/h N 0 3,2 C 4,4 C 0,0 km/h
22.10.2018 04:00 12,7 C 4,5 C 56 % 92 % 1026,2 hPa 0,0 l/m 0,0 km/h N 0 3,3 C 4,5 C 0,0 km/h
22.10.2018 03:55 12,7 C 4,4 C 56 % 92 % 1026,2 hPa 0,0 l/m 0,0 km/h N 0 3,2 C 4,4 C 0,0 km/h
22.10.2018 03:50 12,8 C 4,4 C 56 % 92 % 1026,2 hPa 0,0 l/m 1,6 km/h SO 135 3,2 C 4,4 C 3,2 km/h
22.10.2018 03:45 12,8 C 4,3 C 56 % 92 % 1026,0 hPa 0,0 l/m 3,2 km/h SO 135 3,1 C 4,3 C 4,8 km/h
22.10.2018 03:40 12,8 C 4,3 C 56 % 92 % 1026,0 hPa 0,0 l/m 4,8 km/h SO 135 3,1 C 4,3 C 4,8 km/h
22.10.2018 03:35 12,9 C 4,2 C 56 % 92 % 1026,0 hPa 0,0 l/m 4,8 km/h SO 135 3,0 C 4,2 C 6,4 km/h
22.10.2018 03:30 12,9 C 4,2 C 56 % 91 % 1026,2 hPa 0,0 l/m 3,2 km/h S-SO 157 2,9 C 4,2 C 6,4 km/h
22.10.2018 03:25 12,9 C 4,2 C 56 % 91 % 1026,2 hPa 0,0 l/m 3,2 km/h S-SO 157 2,9 C 4,2 C 4,8 km/h
22.10.2018 03:20 13,0 C 4,2 C 56 % 90 % 1026,3 hPa 0,0 l/m 0,0 km/h S-SO 157 2,7 C 4,2 C 1,6 km/h
22.10.2018 03:15 13,0 C 4,3 C 56 % 90 % 1026,2 hPa 0,0 l/m 0,0 km/h N 0 2,8 C 4,3 C 0,0 km/h
22.10.2018 03:10 13,1 C 4,5 C 56 % 90 % 1026,1 hPa 0,0 l/m 0,0 km/h S-SO 157 3,0 C 4,5 C 1,6 km/h
22.10.2018 03:05 13,1 C 4,7 C 56 % 90 % 1026,1 hPa 0,0 l/m 3,2 km/h S-SO 157 3,2 C 4,7 C 6,4 km/h
22.10.2018 03:00 13,1 C 4,8 C 56 % 90 % 1026,1 hPa 0,0 l/m 4,8 km/h S-SO 157 3,3 C 4,8 C 8,0 km/h
22.10.2018 02:55 13,2 C 4,9 C 56 % 91 % 1026,1 hPa 0,0 l/m 6,4 km/h SO 135 3,6 C 4,9 C 8,0 km/h
22.10.2018 02:50 13,2 C 4,8 C 56 % 91 % 1026,0 hPa 0,0 l/m 3,2 km/h SO 135 3,5 C 4,8 C 6,4 km/h
22.10.2018 02:45 13,2 C 4,8 C 55 % 90 % 1026,1 hPa 0,0 l/m 1,6 km/h SO 135 3,3 C 4,8 C 3,2 km/h
22.10.2018 02:40 13,2 C 4,8 C 55 % 90 % 1026,2 hPa 0,0 l/m 0,0 km/h N 0 3,3 C 4,8 C 0,0 km/h
22.10.2018 02:35 13,2 C 4,8 C 55 % 90 % 1026,3 hPa 0,0 l/m 1,6 km/h SO 135 3,3 C 4,8 C 3,2 km/h
22.10.2018 02:30 13,2 C 4,9 C 55 % 90 % 1026,3 hPa 0,0 l/m 0,0 km/h SO 135 3,4 C 4,9 C 3,2 km/h
22.10.2018 02:25 13,3 C 4,9 C 55 % 90 % 1026,3 hPa 0,0 l/m 1,6 km/h SO 135 3,4 C 4,9 C 3,2 km/h
22.10.2018 02:20 13,3 C 5,0 C 55 % 90 % 1026,3 hPa 0,0 l/m 1,6 km/h SO 135 3,5 C 5,0 C 3,2 km/h
22.10.2018 02:15 13,3 C 5,1 C 55 % 90 % 1026,4 hPa 0,0 l/m 1,6 km/h SO 135 3,6 C 5,1 C 3,2 km/h
22.10.2018 02:10 13,3 C 5,1 C 55 % 90 % 1026,5 hPa 0,0 l/m 0,0 km/h N 0 3,6 C 5,1 C 0,0 km/h
22.10.2018 02:05 13,3 C 5,1 C 55 % 90 % 1026,5 hPa 0,0 l/m 0,0 km/h N 0 3,6 C 5,1 C 0,0 km/h
22.10.2018 02:00 13,3 C 5,1 C 55 % 89 % 1026,4 hPa 0,0 l/m 1,6 km/h SO 135 3,4 C 5,1 C 3,2 km/h
22.10.2018 01:55 13,3 C 5,2 C 55 % 89 % 1026,4 hPa 0,0 l/m 3,2 km/h SO 135 3,5 C 5,2 C 4,8 km/h
22.10.2018 01:50 13,4 C 5,3 C 55 % 89 % 1026,4 hPa 0,0 l/m 0,0 km/h N 0 3,6 C 5,3 C 0,0 km/h
22.10.2018 01:45 13,4 C 5,5 C 55 % 89 % 1026,4 hPa 0,0 l/m 0,0 km/h N 0 3,8 C 5,5 C 0,0 km/h
22.10.2018 01:40 13,4 C 5,7 C 55 % 88 % 1026,4 hPa 0,0 l/m 0,0 km/h SO 135 3,9 C 5,7 C 3,2 km/h
22.10.2018 01:35 13,4 C 5,7 C 55 % 89 % 1026,3 hPa 0,0 l/m 1,6 km/h SO 135 4,0 C 5,7 C 3,2 km/h
22.10.2018 01:30 13,4 C 5,7 C 55 % 89 % 1026,2 hPa 0,0 l/m 1,6 km/h SO 135 4,0 C 5,7 C 4,8 km/h
22.10.2018 01:25 13,5 C 5,7 C 55 % 89 % 1026,2 hPa 0,0 l/m 4,8 km/h SO 135 4,0 C 5,7 C 6,4 km/h
22.10.2018 01:20 13,6 C 5,7 C 55 % 89 % 1026,2 hPa 0,0 l/m 6,4 km/h SO 135 4,0 C 5,7 C 8,0 km/h
22.10.2018 01:15 13,7 C 5,7 C 54 % 89 % 1026,3 hPa 0,0 l/m 4,8 km/h SO 135 4,0 C 5,7 C 6,4 km/h
22.10.2018 01:10 13,7 C 5,6 C 54 % 90 % 1026,3 hPa 0,0 l/m 6,4 km/h SO 135 4,1 C 5,6 C 8,0 km/h
22.10.2018 01:05 13,7 C 5,4 C 54 % 89 % 1026,4 hPa 0,0 l/m 3,2 km/h SO 135 3,7 C 5,4 C 6,4 km/h
22.10.2018 01:00 13,8 C 5,5 C 54 % 88 % 1026,4 hPa 0,0 l/m 1,6 km/h SO 135 3,7 C 5,5 C 3,2 km/h
22.10.2018 00:55 13,8 C 5,7 C 54 % 88 % 1026,4 hPa 0,0 l/m 1,6 km/h SO 135 3,9 C 5,7 C 3,2 km/h
22.10.2018 00:50 13,8 C 5,8 C 54 % 88 % 1026,4 hPa 0,0 l/m 1,6 km/h SO 135 4,0 C 5,8 C 3,2 km/h
22.10.2018 00:45 13,8 C 5,9 C 54 % 88 % 1026,4 hPa 0,0 l/m 1,6 km/h SO 135 4,1 C 5,9 C 4,8 km/h
22.10.2018 00:40 13,8 C 6,1 C 54 % 88 % 1026,4 hPa 0,0 l/m 6,4 km/h SO 135 4,3 C 6,1 C 8,0 km/h
22.10.2018 00:35 13,8 C 6,1 C 54 % 89 % 1026,4 hPa 0,0 l/m 6,4 km/h SO 135 4,4 C 6,1 C 8,0 km/h
22.10.2018 00:30 13,9 C 6,1 C 54 % 88 % 1026,5 hPa 0,0 l/m 4,8 km/h SO 135 4,3 C 6,1 C 4,8 km/h
22.10.2018 00:25 14,0 C 6,1 C 53 % 88 % 1026,6 hPa 0,0 l/m 4,8 km/h SO 135 4,3 C 6,1 C 6,4 km/h
22.10.2018 00:20 14,1 C 6,1 C 53 % 89 % 1026,7 hPa 0,0 l/m 3,2 km/h SO 135 4,4 C 6,1 C 4,8 km/h
22.10.2018 00:15 14,1 C 6,0 C 53 % 88 % 1026,6 hPa 0,0 l/m 3,2 km/h SO 135 4,2 C 6,0 C 4,8 km/h
22.10.2018 00:10 14,2 C 5,9 C 53 % 88 % 1026,7 hPa 0,0 l/m 1,6 km/h SO 135 4,1 C 5,9 C 3,2 km/h
22.10.2018 00:05 14,2 C 5,9 C 53 % 88 % 1026,6 hPa 0,0 l/m 4,8 km/h SO 135 4,1 C 5,9 C 8,0 km/h
22.10.2018 00:00 14,3 C 5,7 C 53 % 89 % 1026,5 hPa 0,0 l/m 6,4 km/h S-SO 157 4,0 C 5,7 C 8,0 km/h
21.10.2018 23:55 14,3 C 5,8 C 53 % 87 % 1026,4 hPa 0,0 l/m 1,6 km/h S-SO 157 3,8 C 5,8 C 4,8 km/h
21.10.2018 23:50 14,4 C 5,9 C 53 % 87 % 1026,2 hPa 0,0 l/m 0,0 km/h N 0 3,9 C 5,9 C 0,0 km/h
21.10.2018 23:45 14,4 C 6,0 C 53 % 87 % 1026,3 hPa 0,0 l/m 0,0 km/h S-SO 157 4,0 C 6,0 C 1,6 km/h
21.10.2018 23:40 14,5 C 6,1 C 53 % 87 % 1026,3 hPa 0,0 l/m 3,2 km/h S-SO 157 4,1 C 6,1 C 4,8 km/h
21.10.2018 23:35 14,6 C 6,3 C 53 % 86 % 1026,2 hPa 0,0 l/m 3,2 km/h S-SO 157 4,1 C 6,3 C 4,8 km/h
21.10.2018 23:30 14,6 C 6,4 C 53 % 86 % 1026,2 hPa 0,0 l/m 3,2 km/h S-SO 157 4,2 C 6,4 C 6,4 km/h
21.10.2018 23:25 14,7 C 6,5 C 52 % 86 % 1026,2 hPa 0,0 l/m 3,2 km/h S-SO 157 4,3 C 6,5 C 4,8 km/h
21.10.2018 23:20 14,7 C 6,6 C 52 % 85 % 1026,3 hPa 0,0 l/m 3,2 km/h S-SO 157 4,3 C 6,6 C 4,8 km/h
21.10.2018 23:15 14,8 C 6,8 C 52 % 84 % 1026,3 hPa 0,0 l/m 0,0 km/h SO 135 4,3 C 6,8 C 6,4 km/h
21.10.2018 23:10 14,8 C 7,0 C 52 % 84 % 1026,4 hPa 0,0 l/m 0,0 km/h SO 135 4,5 C 7,0 C 3,2 km/h
21.10.2018 23:05 14,8 C 7,1 C 52 % 84 % 1026,4 hPa 0,0 l/m 1,6 km/h SO 135 4,6 C 7,1 C 3,2 km/h
21.10.2018 23:00 14,9 C 7,2 C 52 % 84 % 1026,3 hPa 0,0 l/m 0,0 km/h N 0 4,7 C 7,2 C 0,0 km/h
21.10.2018 22:55 14,9 C 7,2 C 52 % 84 % 1026,5 hPa 0,0 l/m 0,0 km/h N 0 4,7 C 7,2 C 0,0 km/h
21.10.2018 22:50 14,9 C 7,2 C 52 % 84 % 1026,4 hPa 0,0 l/m 0,0 km/h N 0 4,7 C 7,2 C 0,0 km/h
21.10.2018 22:45 15,0 C 7,2 C 52 % 84 % 1026,5 hPa 0,0 l/m 0,0 km/h N 0 4,7 C 7,2 C 0,0 km/h
21.10.2018 22:40 15,0 C 7,3 C 52 % 83 % 1026,3 hPa 0,0 l/m 0,0 km/h N 0 4,6 C 7,3 C 0,0 km/h
21.10.2018 22:35 15,1 C 7,3 C 52 % 83 % 1026,3 hPa 0,0 l/m 0,0 km/h N 0 4,6 C 7,3 C 0,0 km/h
21.10.2018 22:30 15,1 C 7,3 C 51 % 84 % 1026,2 hPa 0,0 l/m 0,0 km/h N 0 4,8 C 7,3 C 0,0 km/h
21.10.2018 22:25 15,1 C 7,3 C 51 % 84 % 1026,2 hPa 0,0 l/m 0,0 km/h N 0 4,8 C 7,3 C 0,0 km/h
21.10.2018 22:20 15,2 C 7,3 C 51 % 84 % 1026,2 hPa 0,0 l/m 0,0 km/h N 0 4,8 C 7,3 C 0,0 km/h
21.10.2018 22:15 15,2 C 7,3 C 51 % 83 % 1026,2 hPa 0,0 l/m 0,0 km/h N 0 4,6 C 7,3 C 0,0 km/h
21.10.2018 22:10 15,2 C 7,3 C 51 % 83 % 1026,1 hPa 0,0 l/m 0,0 km/h N 0 4,6 C 7,3 C 0,0 km/h
21.10.2018 22:05 15,3 C 7,4 C 51 % 83 % 1026,1 hPa 0,0 l/m 0,0 km/h N 0 4,7 C 7,4 C 0,0 km/h
21.10.2018 22:00 15,3 C 7,5 C 51 % 82 % 1026,1 hPa 0,0 l/m 0,0 km/h N 0 4,6 C 7,5 C 0,0 km/h
21.10.2018 21:55 15,4 C 7,6 C 51 % 82 % 1026,1 hPa 0,0 l/m 0,0 km/h N 0 4,7 C 7,6 C 0,0 km/h
21.10.2018 21:50 15,4 C 7,7 C 50 % 82 % 1026,0 hPa 0,0 l/m 0,0 km/h N 0 4,8 C 7,7 C 0,0 km/h
21.10.2018 21:45 15,5 C 7,8 C 50 % 81 % 1026,0 hPa 0,0 l/m 0,0 km/h N 0 4,7 C 7,8 C 0,0 km/h
21.10.2018 21:40 15,6 C 7,9 C 50 % 80 % 1026,0 hPa 0,0 l/m 0,0 km/h N 0 4,7 C 7,9 C 0,0 km/h
21.10.2018 21:35 15,6 C 8,1 C 50 % 80 % 1026,1 hPa 0,0 l/m 0,0 km/h N 0 4,9 C 8,1 C 0,0 km/h
21.10.2018 21:30 15,6 C 8,2 C 50 % 80 % 1026,1 hPa 0,0 l/m 0,0 km/h SO 135 5,0 C 8,2 C 1,6 km/h
21.10.2018 21:25 15,7 C 8,2 C 50 % 81 % 1026,1 hPa 0,0 l/m 1,6 km/h SO 135 5,1 C 8,2 C 3,2 km/h
21.10.2018 21:20 15,7 C 7,9 C 50 % 82 % 1026,2 hPa 0,0 l/m 3,2 km/h SO 135 5,0 C 7,9 C 4,8 km/h
21.10.2018 21:15 15,8 C 7,8 C 50 % 81 % 1026,1 hPa 0,0 l/m 3,2 km/h SO 135 4,7 C 7,8 C 3,2 km/h
21.10.2018 21:10 15,8 C 8,1 C 50 % 80 % 1026,1 hPa 0,0 l/m 1,6 km/h SO 135 4,9 C 8,1 C 3,2 km/h
21.10.2018 21:05 15,8 C 8,3 C 49 % 79 % 1026,1 hPa 0,0 l/m 1,6 km/h SO 135 4,9 C 8,3 C 4,8 km/h
21.10.2018 21:00 15,9 C 8,6 C 49 % 78 % 1026,0 hPa 0,0 l/m 1,6 km/h SO 135 5,0 C 8,6 C 3,2 km/h
21.10.2018 20:55 15,9 C 8,9 C 49 % 77 % 1026,1 hPa 0,0 l/m 1,6 km/h SO 135 5,1 C 8,9 C 3,2 km/h
21.10.2018 20:50 16,0 C 9,3 C 49 % 76 % 1026,1 hPa 0,0 l/m 1,6 km/h SO 135 5,3 C 9,3 C 3,2 km/h
21.10.2018 20:45 16,1 C 9,6 C 49 % 75 % 1026,1 hPa 0,0 l/m 4,8 km/h SO 135 5,4 C 9,6 C 6,4 km/h
21.10.2018 20:40 16,1 C 9,7 C 49 % 76 % 1026,1 hPa 0,0 l/m 6,4 km/h SO 135 5,7 C 9,7 C 6,4 km/h
21.10.2018 20:35 16,2 C 9,4 C 48 % 77 % 1026,0 hPa 0,0 l/m 6,4 km/h S-SO 157 5,6 C 9,4 C 8,0 km/h
21.10.2018 20:30 16,3 C 9,2 C 48 % 77 % 1026,0 hPa 0,0 l/m 4,8 km/h S-SO 157 5,4 C 9,2 C 6,4 km/h
21.10.2018 20:25 16,4 C 9,3 C 48 % 77 % 1026,1 hPa 0,0 l/m 6,4 km/h S-SO 157 5,5 C 9,3 C 8,0 km/h
21.10.2018 20:20 16,4 C 9,2 C 48 % 77 % 1026,1 hPa 0,0 l/m 6,4 km/h S-SO 157 5,4 C 9,2 C 6,4 km/h
21.10.2018 20:15 16,6 C 9,2 C 47 % 77 % 1026,2 hPa 0,0 l/m 6,4 km/h S-SO 157 5,4 C 9,2 C 8,0 km/h
21.10.2018 20:10 16,7 C 9,3 C 47 % 77 % 1026,2 hPa 0,0 l/m 6,4 km/h S-SO 157 5,5 C 9,3 C 9,7 km/h
21.10.2018 20:05 16,7 C 9,5 C 47 % 76 % 1026,1 hPa 0,0 l/m 6,4 km/h SO 135 5,5 C 9,5 C 8,0 km/h
21.10.2018 20:00 16,9 C 9,4 C 46 % 76 % 1026,2 hPa 0,0 l/m 4,8 km/h SO 135 5,4 C 9,4 C 8,0 km/h
21.10.2018 19:55 17,1 C 9,4 C 46 % 76 % 1026,3 hPa 0,0 l/m 6,4 km/h SO 135 5,4 C 9,4 C 9,7 km/h
21.10.2018 19:50 17,3 C 9,3 C 45 % 76 % 1026,3 hPa 0,0 l/m 6,4 km/h SO 135 5,3 C 9,3 C 9,7 km/h
21.10.2018 19:45 17,4 C 9,5 C 45 % 76 % 1026,3 hPa 0,0 l/m 8,0 km/h SO 135 5,5 C 8,3 C 9,7 km/h
21.10.2018 19:40 17,5 C 9,7 C 45 % 75 % 1026,1 hPa 0,0 l/m 6,4 km/h SO 135 5,5 C 9,7 C 8,0 km/h
21.10.2018 19:35 17,7 C 10,1 C 44 % 74 % 1026,1 hPa 0,0 l/m 6,4 km/h SO 135 5,7 C 10,1 C 8,0 km/h
21.10.2018 19:30 17,8 C 10,4 C 44 % 73 % 1026,2 hPa 0,0 l/m 8,0 km/h SO 135 5,8 C 9,3 C 11,3 km/h
21.10.2018 19:25 17,9 C 10,3 C 44 % 73 % 1026,2 hPa 0,0 l/m 9,7 km/h SO 135 5,7 C 8,1 C 12,9 km/h
21.10.2018 19:20 18,1 C 10,1 C 44 % 74 % 1026,2 hPa 0,0 l/m 9,7 km/h SO 135 5,7 C 7,9 C 14,5 km/h
21.10.2018 19:15 18,2 C 10,1 C 43 % 73 % 1026,2 hPa 0,0 l/m 6,4 km/h SO 135 5,5 C 10,1 C 8,0 km/h
21.10.2018 19:10 18,3 C 10,6 C 43 % 71 % 1026,2 hPa 0,0 l/m 4,8 km/h SO 135 5,6 C 10,6 C 8,0 km/h
21.10.2018 19:05 18,5 C 11,2 C 43 % 69 % 1026,2 hPa 0,0 l/m 3,2 km/h S-SO 157 5,7 C 11,2 C 4,8 km/h
21.10.2018 19:00 18,7 C 11,6 C 42 % 67 % 1026,1 hPa 0,0 l/m 1,6 km/h S-SO 157 5,7 C 11,6 C 3,2 km/h
21.10.2018 18:55 18,9 C 11,9 C 42 % 66 % 1026,1 hPa 0,0 l/m 0,0 km/h N 0 5,8 C 11,9 C 0,0 km/h
21.10.2018 18:50 19,1 C 12,2 C 41 % 65 % 1026,2 hPa 0,0 l/m 0,0 km/h N 0 5,8 C 12,2 C 0,0 km/h
21.10.2018 18:45 19,2 C 12,4 C 41 % 65 % 1026,3 hPa 0,0 l/m 0,0 km/h S 180 6,0 C 12,4 C 1,6 km/h
21.10.2018 18:40 19,4 C 12,6 C 40 % 64 % 1026,3 hPa 0,0 l/m 1,6 km/h S 180 6,0 C 12,6 C 3,2 km/h
21.10.2018 18:35 19,6 C 12,7 C 40 % 63 % 1026,3 hPa 0,0 l/m 3,2 km/h S 180 5,8 C 12,7 C 4,8 km/h
21.10.2018 18:30 19,8 C 12,8 C 40 % 63 % 1026,3 hPa 0,0 l/m 3,2 km/h S 180 5,9 C 12,8 C 4,8 km/h
21.10.2018 18:25 20,0 C 12,9 C 39 % 63 % 1026,3 hPa 0,0 l/m 3,2 km/h S 180 6,0 C 12,9 C 4,8 km/h
21.10.2018 18:20 20,2 C 13,1 C 39 % 62 % 1026,3 hPa 0,0 l/m 3,2 km/h S 180 6,0 C 13,1 C 3,2 km/h
21.10.2018 18:15 20,4 C 13,1 C 38 % 62 % 1026,2 hPa 0,0 l/m 3,2 km/h S 180 6,0 C 13,1 C 4,8 km/h
21.10.2018 18:10 20,7 C 13,1 C 38 % 62 % 1026,1 hPa 0,0 l/m 3,2 km/h S 180 6,0 C 13,1 C 4,8 km/h
21.10.2018 18:05 20,9 C 13,2 C 37 % 62 % 1026,1 hPa 0,0 l/m 3,2 km/h S 180 6,1 C 13,2 C 4,8 km/h
21.10.2018 18:00 21,1 C 13,2 C 37 % 62 % 1026,0 hPa 0,0 l/m 3,2 km/h S 180 6,1 C 13,2 C 4,8 km/h
21.10.2018 17:55 21,4 C 13,2 C 36 % 62 % 1026,0 hPa 0,0 l/m 3,2 km/h S 180 6,1 C 13,2 C 6,4 km/h
21.10.2018 17:50 21,7 C 13,3 C 36 % 62 % 1026,0 hPa 0,0 l/m 4,8 km/h S 180 6,2 C 13,3 C 6,4 km/h
21.10.2018 17:45 22,1 C 13,4 C 35 % 61 % 1026,1 hPa 0,0 l/m 4,8 km/h SO 135 6,0 C 13,4 C 6,4 km/h
21.10.2018 17:40 22,4 C 13,6 C 35 % 61 % 1026,1 hPa 0,0 l/m 4,8 km/h SO 135 6,2 C 13,6 C 6,4 km/h
21.10.2018 17:35 22,8 C 13,7 C 34 % 60 % 1026,1 hPa 0,0 l/m 4,8 km/h SO 135 6,1 C 13,7 C 6,4 km/h
21.10.2018 17:30 23,2 C 13,7 C 34 % 60 % 1026,1 hPa 0,0 l/m 4,8 km/h O-SO 112 6,1 C 13,7 C 6,4 km/h
21.10.2018 17:25 23,6 C 13,7 C 33 % 60 % 1026,1 hPa 0,0 l/m 4,8 km/h O-SO 112 6,1 C 13,7 C 6,4 km/h
21.10.2018 17:20 24,1 C 13,8 C 32 % 60 % 1026,2 hPa 0,0 l/m 4,8 km/h O-SO 112 6,2 C 13,8 C 6,4 km/h
21.10.2018 17:15 24,6 C 13,8 C 32 % 59 % 1026,3 hPa 0,0 l/m 4,8 km/h O-SO 112 5,9 C 13,8 C 6,4 km/h
21.10.2018 17:10 25,0 C 13,9 C 31 % 59 % 1026,1 hPa 0,0 l/m 4,8 km/h O-SO 112 6,0 C 13,9 C 8,0 km/h
21.10.2018 17:05 25,3 C 14,0 C 31 % 59 % 1026,2 hPa 0,0 l/m 4,8 km/h O-SO 112 6,1 C 14,0 C 6,4 km/h
21.10.2018 17:00 25,7 C 14,0 C 30 % 59 % 1026,1 hPa 0,0 l/m 4,8 km/h O-SO 112 6,1 C 14,0 C 6,4 km/h
21.10.2018 16:55 25,9 C 14,1 C 30 % 59 % 1026,2 hPa 0,0 l/m 4,8 km/h O-SO 112 6,2 C 14,1 C 6,4 km/h
21.10.2018 16:50 26,0 C 14,1 C 30 % 58 % 1026,2 hPa 0,0 l/m 4,8 km/h O-SO 112 6,0 C 14,1 C 8,0 km/h
21.10.2018 16:45 26,0 C 14,1 C 30 % 58 % 1026,3 hPa 0,0 l/m 6,4 km/h O-SO 112 6,0 C 14,1 C 11,3 km/h
21.10.2018 16:40 26,1 C 14,1 C 30 % 58 % 1026,3 hPa 0,0 l/m 4,8 km/h O-SO 112 6,0 C 14,1 C 9,7 km/h
21.10.2018 16:35 26,2 C 14,2 C 30 % 57 % 1026,2 hPa 0,0 l/m 6,4 km/h O-SO 112 5,8 C 14,2 C 8,0 km/h
21.10.2018 16:30 26,3 C 14,2 C 30 % 57 % 1026,2 hPa 0,0 l/m 6,4 km/h SO 135 5,8 C 14,2 C 9,7 km/h
21.10.2018 16:25 26,4 C 14,2 C 30 % 57 % 1026,2 hPa 0,0 l/m 8,0 km/h O-SO 112 5,8 C 13,3 C 11,3 km/h
21.10.2018 16:20 26,4 C 14,2 C 30 % 57 % 1026,2 hPa 0,0 l/m 4,8 km/h O 90 5,8 C 14,2 C 6,4 km/h
21.10.2018 16:15 26,6 C 14,2 C 30 % 57 % 1026,2 hPa 0,0 l/m 4,8 km/h O 90 5,8 C 14,2 C 9,7 km/h
21.10.2018 16:10 26,7 C 14,3 C 30 % 57 % 1026,3 hPa 0,0 l/m 6,4 km/h O-SO 112 5,9 C 14,3 C 11,3 km/h
21.10.2018 16:05 26,8 C 14,3 C 30 % 57 % 1026,2 hPa 0,0 l/m 4,8 km/h O-SO 112 5,9 C 14,3 C 8,0 km/h
21.10.2018 16:00 26,9 C 14,3 C 30 % 57 % 1026,3 hPa 0,0 l/m 6,4 km/h O-SO 112 5,9 C 14,3 C 11,3 km/h
21.10.2018 15:55 27,1 C 14,3 C 29 % 57 % 1026,4 hPa 0,0 l/m 6,4 km/h O-NO 67 5,9 C 14,3 C 11,3 km/h
21.10.2018 15:50 27,3 C 14,3 C 29 % 56 % 1026,5 hPa 0,0 l/m 8,0 km/h O-NO 67 5,6 C 13,4 C 11,3 km/h
21.10.2018 15:45 27,3 C 14,3 C 30 % 57 % 1026,7 hPa 0,0 l/m 3,2 km/h O 90 5,9 C 14,3 C 11,3 km/h
21.10.2018 15:40 27,4 C 14,3 C 29 % 57 % 1026,8 hPa 0,0 l/m 4,8 km/h O 90 5,9 C 14,3 C 6,4 km/h
21.10.2018 15:35 27,6 C 14,3 C 29 % 57 % 1026,8 hPa 0,0 l/m 9,7 km/h O 90 5,9 C 12,5 C 12,9 km/h
21.10.2018 15:30 27,6 C 14,5 C 30 % 57 % 1026,9 hPa 0,0 l/m 11,3 km/h O-SO 112 6,1 C 12,0 C 16,1 km/h
21.10.2018 15:25 27,6 C 14,7 C 30 % 56 % 1026,9 hPa 0,0 l/m 1,6 km/h O 90 6,0 C 14,7 C 11,3 km/h
21.10.2018 15:20 27,5 C 14,6 C 30 % 57 % 1026,9 hPa 0,0 l/m 4,8 km/h O 90 6,2 C 14,6 C 8,0 km/h
21.10.2018 15:15 27,3 C 14,6 C 30 % 57 % 1026,9 hPa 0,0 l/m 3,2 km/h SO 135 6,2 C 14,6 C 6,4 km/h
21.10.2018 15:10 27,2 C 14,4 C 30 % 57 % 1026,9 hPa 0,0 l/m 6,4 km/h O-SO 112 6,0 C 14,4 C 11,3 km/h
21.10.2018 15:05 27,1 C 14,3 C 30 % 57 % 1026,9 hPa 0,0 l/m 4,8 km/h O-SO 112 5,9 C 14,3 C 11,3 km/h
21.10.2018 15:00 27,0 C 14,4 C 31 % 57 % 1026,9 hPa 0,0 l/m 12,9 km/h SO 135 6,0 C 11,2 C 17,7 km/h
21.10.2018 14:55 26,8 C 14,4 C 31 % 57 % 1027,1 hPa 0,0 l/m 4,8 km/h S-SO 157 6,0 C 14,4 C 6,4 km/h
21.10.2018 14:50 26,6 C 14,3 C 31 % 57 % 1027,2 hPa 0,0 l/m 4,8 km/h O 90 5,9 C 14,3 C 11,3 km/h
21.10.2018 14:45 26,4 C 14,3 C 32 % 57 % 1027,2 hPa 0,0 l/m 4,8 km/h S-SO 157 5,9 C 14,3 C 11,3 km/h
21.10.2018 14:40 26,2 C 14,3 C 32 % 57 % 1027,2 hPa 0,0 l/m 6,4 km/h SO 135 5,9 C 14,3 C 14,5 km/h
21.10.2018 14:35 26,1 C 14,2 C 32 % 58 % 1027,2 hPa 0,0 l/m 4,8 km/h O-NO 67 6,1 C 14,2 C 11,3 km/h
21.10.2018 14:30 26,0 C 14,2 C 32 % 58 % 1027,2 hPa 0,0 l/m 6,4 km/h O-NO 67 6,1 C 14,2 C 12,9 km/h
21.10.2018 14:25 26,0 C 14,1 C 32 % 58 % 1027,3 hPa 0,0 l/m 9,7 km/h O 90 6,0 C 12,3 C 14,5 km/h
21.10.2018 14:20 25,9 C 14,2 C 32 % 58 % 1027,3 hPa 0,0 l/m 8,0 km/h O-SO 112 6,1 C 13,3 C 16,1 km/h
21.10.2018 14:15 25,7 C 14,2 C 33 % 59 % 1027,4 hPa 0,0 l/m 6,4 km/h SO 135 6,3 C 14,2 C 12,9 km/h
21.10.2018 14:10 25,6 C 14,2 C 33 % 57 % 1027,5 hPa 0,0 l/m 6,4 km/h S-SO 157 5,8 C 14,2 C 14,5 km/h
21.10.2018 14:05 25,6 C 14,1 C 32 % 59 % 1027,5 hPa 0,0 l/m 9,7 km/h O-NO 67 6,2 C 12,3 C 14,5 km/h
21.10.2018 14:00 25,7 C 13,9 C 33 % 59 % 1027,5 hPa 0,0 l/m 11,3 km/h O-NO 67 6,0 C 11,3 C 14,5 km/h
21.10.2018 13:55 25,8 C 13,8 C 33 % 60 % 1027,5 hPa 0,0 l/m 12,9 km/h O 90 6,2 C 10,5 C 17,7 km/h
21.10.2018 13:50 25,7 C 13,9 C 34 % 60 % 1027,5 hPa 0,0 l/m 11,3 km/h S-SO 157 6,3 C 11,3 C 19,3 km/h
21.10.2018 13:45 25,6 C 13,9 C 34 % 61 % 1027,5 hPa 0,0 l/m 4,8 km/h SO 135 6,5 C 13,9 C 12,9 km/h
21.10.2018 13:40 25,4 C 13,8 C 35 % 61 % 1027,6 hPa 0,0 l/m 11,3 km/h NO 45 6,4 C 11,2 C 19,3 km/h
21.10.2018 13:35 25,3 C 13,7 C 35 % 62 % 1027,9 hPa 0,0 l/m 4,8 km/h N 360 6,6 C 13,7 C 11,3 km/h
21.10.2018 13:30 25,2 C 13,5 C 36 % 63 % 1028,0 hPa 0,0 l/m 6,4 km/h N 360 6,6 C 13,5 C 11,3 km/h
21.10.2018 13:25 25,2 C 13,5 C 36 % 64 % 1028,1 hPa 0,0 l/m 8,0 km/h N 360 6,8 C 12,5 C 12,9 km/h
21.10.2018 13:20 24,9 C 13,4 C 36 % 64 % 1027,9 hPa 0,0 l/m 4,8 km/h N-NO 22 6,7 C 13,4 C 12,9 km/h
21.10.2018 13:15 24,8 C 13,3 C 36 % 64 % 1027,9 hPa 0,0 l/m 6,4 km/h N 360 6,6 C 13,3 C 11,3 km/h
21.10.2018 13:10 24,7 C 13,2 C 36 % 66 % 1027,9 hPa 0,0 l/m 0,0 km/h NO 45 7,0 C 13,2 C 4,8 km/h
21.10.2018 13:05 24,6 C 13,1 C 36 % 66 % 1027,9 hPa 0,0 l/m 6,4 km/h O-NO 67 6,9 C 13,1 C 12,9 km/h
21.10.2018 13:00 24,4 C 12,9 C 37 % 67 % 1027,9 hPa 0,0 l/m 4,8 km/h NO 45 6,9 C 12,9 C 8,0 km/h
21.10.2018 12:55 24,3 C 12,9 C 37 % 67 % 1027,9 hPa 0,0 l/m 4,8 km/h SO 135 6,9 C 12,9 C 9,7 km/h
21.10.2018 12:50 24,0 C 12,7 C 37 % 67 % 1027,9 hPa 0,0 l/m 6,4 km/h NO 45 6,7 C 12,7 C 11,3 km/h
21.10.2018 12:45 23,8 C 12,3 C 38 % 68 % 1027,8 hPa 0,0 l/m 4,8 km/h NO 45 6,6 C 12,3 C 9,7 km/h
21.10.2018 12:40 23,6 C 12,3 C 38 % 69 % 1028,0 hPa 0,0 l/m 4,8 km/h NO 45 6,8 C 12,3 C 11,3 km/h
21.10.2018 12:35 23,3 C 12,3 C 38 % 70 % 1028,0 hPa 0,0 l/m 8,0 km/h N-NO 22 7,0 C 11,3 C 11,3 km/h
21.10.2018 12:30 23,2 C 12,1 C 39 % 70 % 1028,1 hPa 0,0 l/m 9,7 km/h N-NO 22 6,8 C 10,1 C 16,1 km/h
21.10.2018 12:25 23,1 C 12,0 C 39 % 71 % 1028,1 hPa 0,0 l/m 6,4 km/h NO 45 6,9 C 12,0 C 11,3 km/h
21.10.2018 12:20 22,9 C 11,7 C 39 % 72 % 1028,1 hPa 0,0 l/m 6,4 km/h N-NO 22 6,8 C 11,7 C 12,9 km/h
21.10.2018 12:15 22,8 C 11,6 C 39 % 72 % 1028,2 hPa 0,0 l/m 6,4 km/h N-NO 22 6,7 C 11,6 C 11,3 km/h
21.10.2018 12:10 22,6 C 11,5 C 39 % 73 % 1028,3 hPa 0,0 l/m 8,0 km/h N-NO 22 6,8 C 10,4 C 12,9 km/h
21.10.2018 12:05 22,4 C 11,3 C 40 % 74 % 1028,1 hPa 0,0 l/m 6,4 km/h N-NO 22 6,8 C 11,3 C 9,7 km/h
21.10.2018 12:00 22,3 C 11,1 C 40 % 74 % 1028,3 hPa 0,0 l/m 6,4 km/h N-NO 22 6,6 C 11,1 C 11,3 km/h
21.10.2018 11:55 22,1 C 10,9 C 40 % 75 % 1028,4 hPa 0,0 l/m 6,4 km/h N-NO 22 6,6 C 10,9 C 11,3 km/h
21.10.2018 11:50 22,1 C 10,8 C 40 % 75 % 1028,5 hPa 0,0 l/m 8,0 km/h N-NO 22 6,5 C 9,7 C 11,3 km/h
21.10.2018 11:45 21,9 C 10,7 C 40 % 76 % 1028,7 hPa 0,0 l/m 6,4 km/h N-NO 22 6,6 C 10,7 C 9,7 km/h
21.10.2018 11:40 21,7 C 10,5 C 40 % 76 % 1028,8 hPa 0,0 l/m 6,4 km/h NO 45 6,5 C 10,5 C 9,7 km/h
21.10.2018 11:35 21,3 C 10,4 C 40 % 76 % 1028,8 hPa 0,0 l/m 4,8 km/h NO 45 6,4 C 10,4 C 9,7 km/h
21.10.2018 11:30 21,1 C 10,2 C 40 % 76 % 1028,9 hPa 0,0 l/m 4,8 km/h NO 45 6,2 C 10,2 C 8,0 km/h
21.10.2018 11:25 21,1 C 10,1 C 39 % 76 % 1028,9 hPa 0,0 l/m 4,8 km/h NO 45 6,1 C 10,1 C 8,0 km/h
21.10.2018 11:20 21,9 C 10,0 C 38 % 77 % 1029,1 hPa 0,0 l/m 6,4 km/h NO 45 6,2 C 10,0 C 8,0 km/h
21.10.2018 11:15 22,2 C 9,6 C 38 % 78 % 1029,0 hPa 0,0 l/m 4,8 km/h NO 45 6,0 C 9,6 C 6,4 km/h
21.10.2018 11:10 22,1 C 9,4 C 39 % 78 % 1029,0 hPa 0,0 l/m 4,8 km/h NO 45 5,8 C 9,4 C 8,0 km/h
21.10.2018 11:05 21,9 C 9,3 C 39 % 78 % 1029,0 hPa 0,0 l/m 4,8 km/h NO 45 5,7 C 9,3 C 6,4 km/h
21.10.2018 11:00 21,8 C 9,1 C 39 % 79 % 1029,0 hPa 0,0 l/m 6,4 km/h NO 45 5,7 C 9,1 C 8,0 km/h
21.10.2018 10:55 21,7 C 8,8 C 39 % 79 % 1029,1 hPa 0,0 l/m 4,8 km/h NO 45 5,4 C 8,8 C 8,0 km/h
21.10.2018 10:50 21,6 C 8,8 C 39 % 79 % 1029,1 hPa 0,0 l/m 4,8 km/h NO 45 5,4 C 8,8 C 8,0 km/h
21.10.2018 10:45 21,5 C 8,6 C 39 % 80 % 1029,1 hPa 0,0 l/m 4,8 km/h NO 45 5,3 C 8,6 C 6,4 km/h
21.10.2018 10:40 21,3 C 8,4 C 39 % 80 % 1029,0 hPa 0,0 l/m 4,8 km/h NO 45 5,2 C 8,4 C 6,4 km/h
21.10.2018 10:35 21,2 C 8,3 C 39 % 80 % 1029,2 hPa 0,0 l/m 4,8 km/h NO 45 5,1 C 8,3 C 6,4 km/h
21.10.2018 10:30 21,1 C 8,3 C 39 % 80 % 1029,3 hPa 0,0 l/m 3,2 km/h N-NO 22 5,1 C 8,3 C 4,8 km/h
21.10.2018 10:25 21,0 C 8,2 C 39 % 81 % 1029,2 hPa 0,0 l/m 3,2 km/h NO 45 5,1 C 8,2 C 6,4 km/h
21.10.2018 10:20 20,8 C 8,1 C 39 % 81 % 1029,3 hPa 0,0 l/m 1,6 km/h N-NO 22 5,0 C 8,1 C 4,8 km/h
21.10.2018 10:15 20,7 C 8,0 C 40 % 82 % 1029,3 hPa 0,0 l/m 0,0 km/h O-NO 67 5,1 C 8,0 C 3,2 km/h
21.10.2018 10:10 20,5 C 7,8 C 40 % 82 % 1029,4 hPa 0,0 l/m 1,6 km/h O-SO 112 4,9 C 7,8 C 3,2 km/h
21.10.2018 10:05 20,3 C 7,6 C 40 % 82 % 1029,3 hPa 0,0 l/m 3,2 km/h O-SO 112 4,7 C 7,6 C 4,8 km/h
21.10.2018 10:00 20,1 C 7,4 C 40 % 82 % 1029,3 hPa 0,0 l/m 3,2 km/h SO 135 4,5 C 7,4 C 6,4 km/h
21.10.2018 09:55 19,9 C 7,3 C 41 % 83 % 1029,3 hPa 0,0 l/m 1,6 km/h S 180 4,6 C 7,3 C 4,8 km/h
21.10.2018 09:50 19,6 C 7,1 C 41 % 84 % 1029,4 hPa 0,0 l/m 1,6 km/h S 180 4,6 C 7,1 C 4,8 km/h
21.10.2018 09:45 19,3 C 7,0 C 41 % 84 % 1029,5 hPa 0,0 l/m 1,6 km/h S 180 4,5 C 7,0 C 4,8 km/h
21.10.2018 09:40 19,1 C 6,7 C 42 % 85 % 1029,4 hPa 0,0 l/m 1,6 km/h S-SW 202 4,4 C 6,7 C 3,2 km/h
21.10.2018 09:35 18,9 C 6,3 C 42 % 86 % 1029,3 hPa 0,0 l/m 1,6 km/h S-SW 202 4,1 C 6,3 C 3,2 km/h
21.10.2018 09:30 18,7 C 6,0 C 42 % 87 % 1029,4 hPa 0,0 l/m 3,2 km/h S-SW 202 4,0 C 6,0 C 4,8 km/h
21.10.2018 09:25 18,4 C 5,8 C 42 % 87 % 1029,5 hPa 0,0 l/m 3,2 km/h NW 315 3,8 C 5,8 C 4,8 km/h
21.10.2018 09:20 18,3 C 5,8 C 43 % 88 % 1029,3 hPa 0,0 l/m 0,0 km/h W-NW 292 4,0 C 5,8 C 4,8 km/h
21.10.2018 09:15 18,1 C 5,4 C 43 % 90 % 1029,2 hPa 0,0 l/m 0,0 km/h N 0 3,9 C 5,4 C 0,0 km/h
21.10.2018 09:10 17,9 C 5,0 C 43 % 90 % 1029,3 hPa 0,0 l/m 0,0 km/h N 0 3,5 C 5,0 C 0,0 km/h
21.10.2018 09:05 17,6 C 4,9 C 43 % 90 % 1029,3 hPa 0,0 l/m 0,0 km/h N 0 3,4 C 4,9 C 0,0 km/h
21.10.2018 09:00 17,4 C 4,7 C 44 % 91 % 1029,2 hPa 0,0 l/m 0,0 km/h N 0 3,4 C 4,7 C 0,0 km/h
21.10.2018 08:55 17,2 C 4,4 C 44 % 92 % 1029,2 hPa 0,0 l/m 0,0 km/h N 0 3,2 C 4,4 C 0,0 km/h
21.10.2018 08:50 17,0 C 4,2 C 44 % 92 % 1029,2 hPa 0,0 l/m 0,0 km/h N 0 3,0 C 4,2 C 0,0 km/h
21.10.2018 08:45 16,7 C 3,9 C 45 % 92 % 1029,1 hPa 0,0 l/m 0,0 km/h N 0 2,7 C 3,9 C 0,0 km/h
21.10.2018 08:40 16,4 C 3,7 C 45 % 92 % 1029,1 hPa 0,0 l/m 0,0 km/h N 0 2,5 C 3,7 C 0,0 km/h
21.10.2018 08:35 16,1 C 3,6 C 46 % 92 % 1029,2 hPa 0,0 l/m 0,0 km/h N 0 2,4 C 3,6 C 0,0 km/h
21.10.2018 08:30 15,8 C 3,5 C 46 % 93 % 1029,4 hPa 0,0 l/m 0,0 km/h N 0 2,5 C 3,5 C 0,0 km/h
21.10.2018 08:25 15,6 C 3,3 C 46 % 94 % 1029,1 hPa 0,0 l/m 0,0 km/h N 0 2,4 C 3,3 C 0,0 km/h
21.10.2018 08:20 15,4 C 2,9 C 47 % 93 % 1029,1 hPa 0,0 l/m 0,0 km/h N 0 1,9 C 2,9 C 0,0 km/h
21.10.2018 08:15 15,2 C 2,7 C 47 % 93 % 1029,2 hPa 0,0 l/m 0,0 km/h N 0 1,7 C 2,7 C 0,0 km/h
21.10.2018 08:10 15,1 C 2,7 C 47 % 92 % 1029,1 hPa 0,0 l/m 0,0 km/h N 0 1,5 C 2,7 C 0,0 km/h
21.10.2018 08:05 15,0 C 2,7 C 47 % 93 % 1029,1 hPa 0,0 l/m 0,0 km/h N 0 1,7 C 2,7 C 0,0 km/h
21.10.2018 08:00 14,9 C 2,7 C 47 % 93 % 1029,0 hPa 0,0 l/m 0,0 km/h W-NW 292 1,7 C 2,7 C 3,2 km/h
21.10.2018 07:55 15,0 C 2,7 C 47 % 93 % 1029,1 hPa 0,0 l/m 3,2 km/h W-NW 292 1,7 C 2,7 C 3,2 km/h
21.10.2018 07:50 15,1 C 2,7 C 47 % 93 % 1029,0 hPa 0,0 l/m 3,2 km/h W-NW 292 1,7 C 2,7 C 3,2 km/h
21.10.2018 07:45 15,1 C 2,7 C 47 % 93 % 1029,0 hPa 0,0 l/m 1,6 km/h W-NW 292 1,7 C 2,7 C 3,2 km/h
21.10.2018 07:40 14,8 C 2,7 C 47 % 93 % 1028,8 hPa 0,0 l/m 1,6 km/h W-NW 292 1,7 C 2,7 C 3,2 km/h
21.10.2018 07:35 14,2 C 2,6 C 49 % 93 % 1028,8 hPa 0,0 l/m 0,0 km/h W-NW 292 1,6 C 2,6 C 3,2 km/h
21.10.2018 07:30 13,5 C 2,4 C 51 % 93 % 1028,8 hPa 0,0 l/m 0,0 km/h W-NW 292 1,4 C 2,4 C 1,6 km/h
21.10.2018 07:25 12,7 C 2,3 C 52 % 93 % 1028,7 hPa 0,0 l/m 1,6 km/h W-NW 292 1,3 C 2,3 C 3,2 km/h
21.10.2018 07:20 12,2 C 2,2 C 52 % 92 % 1028,6 hPa 0,0 l/m 1,6 km/h W-NW 292 1,0 C 2,2 C 3,2 km/h
21.10.2018 07:15 12,2 C 2,4 C 52 % 91 % 1028,5 hPa 0,0 l/m 3,2 km/h W-NW 292 1,1 C 2,4 C 4,8 km/h
21.10.2018 07:10 12,4 C 2,9 C 53 % 92 % 1028,5 hPa 0,0 l/m 1,6 km/h W-NW 292 1,7 C 2,9 C 4,8 km/h
21.10.2018 07:05 12,5 C 3,2 C 54 % 93 % 1028,4 hPa 0,0 l/m 0,0 km/h N 0 2,2 C 3,2 C 0,0 km/h
21.10.2018 07:00 12,5 C 3,2 C 55 % 93 % 1028,1 hPa 0,0 l/m 1,6 km/h W-SW 247 2,2 C 3,2 C 1,6 km/h
_ Min-Zeit 06:35 07:20 15:35 15:25 17:50 - 07:05 - - 07:20 07:20 07:05
Minimum _ 11,9 C 2,2 C 29 % 56 % 1026,0 hPa - 0,0 km/h - - 1,0 C 2,2 C 0,0 km/h
_ Max-Zeit 15:25 15:25 02:50 08:25 09:25 07:00 13:55 - - 13:10 15:25 13:40
Maximum _ 27,6 C 14,7 C 56 % 94 % 1029,5 hPa 0,0 l/m 12,9 km/h
O
- - 7,0 C 14,7 C 19,3 km/h
O-NO
Durchschnitt _ 17,6 C 7,9 C 46 % 80 % 1027,1 hPa #0,0 l/m 3,3 km/h SO - 4,4 C 7,8 C 5,4 km/h